星链-37012(STARLINK-37012)

导读

STARLINK-37012(NORAD编号68221)是美国太空探索技术公司(SpaceX)星链(Starlink)项目的低轨互联网卫星,于2024年12月8日发射入轨,截至2026年4月已在轨飞行超过480天。该卫星属于Starlink V1.0平台,运行在近地点约355公里、远地点约357公里的近地轨道,轨道倾角43.001°,周期约91.66分钟,旨在为全球提供高速低延迟卫星互联网服务,支持偏远地区通信、行业应用等场景,是星链全球卫星互联网组网的组成部分。

Basic Information
目录编号:
68221
目录名称:
STARLINK-37012
国际标识:
2026-053Q
轨道中心:
EARTH
卫星名称:
星链-37012
卫星全名:
星链-37012(STARLINK-37012)
卫星状态:
在轨 (已飞行133 天)
发射日期:
2026-03-17 UTC
国别 :
美国 (US)
星等 :
--
Orbit Information
数据来源 国际轨道数据 AOE轨道数据
星历时间 2026-07-27T13:29:55+0800
20小时前
查看轨道信息
2026-07-27T00:00:00+0800
1天前
查看轨道信息
半长轴 6843.628km 6843.771km
偏心率 0.0001875 0.0002699
轨道倾角 97.286° 97.286°
近地点辐角 96.397° 77.272°
升交点赤经 82.798° 82.244°
平近点角 263.748° 59.897°
近地点 464.207km 463.786km
远地点 466.775km 467.482km
周期 93.905分钟 93.908分钟
每日圈数 15.334627 15.334146
Detailed Information
固有亮度:
5
最大亮度:
2.5
卫星平台:
Starlink V1.0
覆盖范围:
全球
运营商:
太空探索技术公司
运营商所在国:
美国
制造商(研发单位):
太空探索技术公司
制造商所在国:
美国
使用方式:
暂无
Satellite Introduction
Starlink 计划是 SpaceX 推出的全球卫星互联网项目,通过发射低轨道卫星,为全球尤其是偏远地区提供高速、低延迟的互联网服务。自 2019 年起,Starlink 已部署数千颗卫星,旨在缩小全球数字鸿沟,推动互联网普及。该项目还为军事、航空等行业提供通信支持,带来广泛经济效益。
2D Orbit Map
3D Orbit Map
Orbit Altitude Analysis Chart
Orbit Inclination Analysis Chart
Orbit Comprehensive Analysis Chart
View Comprehensive Chart